Dewpoint
66 66 66 66 66 66 66 66 66 66 66 66 66 66 66 66 66 66 66 66 66 66 66 65 65 65 65 65 65 65 65 65 65 65 65 66 67 67 67 68 68 68 68 68 68 68 69 69 69 68 68 68 68 67 67 67 67 67 67 67 67 66 67 67 67 67 67 67 67 67 67 66 66 66 66 66 66 66 65 65 65 64 64 64 63 63 63 63 63 62 62 63 63 63 63 63 61 58 55 53 53 52 52
67 66 66 67 67 67 67 67 67 67 67 67 66 66 66 65 65 66 66 66 66 66 66 65 65 65 65 65 65 65 65 65 65 65 65 66 66 67 67 67 67 68 68 68 68 68 68 68 68 68 68 67 67 67 67 67 67 67 67 67 67 66 67 67 67 67 67 67 67 67 66 66 66 66 66 66 65 65 65 65 64 64 64 63 63 63 62 62 62 62 62 62 63 63 63 62 59 56 54 53 52 52 52
67 66 67 67 67 67 67 67 67 67 67 67 67 66 66 65 65 65 66 66 66 66 66 65 65 65 65 65 65 65 65 65 65 65 65 66 66 66 67 67 67 67 68 68 68 68 68 68 67 67 67 67 66 66 66 66 66 66 66 66 66 66 67 67 67 67 67 67 67 66 66 66 66 66 66 65 65 65 64 64 64 63 63 63 63 62 62 62 62 62 62 62 62 63 61 59 55 53 52 52 52 52 53
66 67 67 67 67 67 67 67 67 67 67 67 67 67 66 66 65 65 66 66 66 66 65 65 65 65 65 65 65 65 66 66 66 66 66 66 66 66 66 66 67 67 67 68 68 68 67 67 67 67 66 66 65 65 66 66 66 66 66 66 66 66 67 67 67 67 67 67 66 66 66 66 66 65 65 65 65 64 64 64 63 63 63 63 62 62 62 62 62 61 62 62 62 61 58 54 52 51 51 52 52 52 53
66 67 67 67 67 67 67 67 67 66 66 66 66 67 66 66 65 65 65 66 66 66 65 65 65 65 65 65 65 65 65 65 66 66 66 66 66 66 66 66 66 66 66 67 67 66 66 66 66 66 65 65 65 66 66 66 66 66 66 66 66 66 67 67 67 67 66 66 66 66 66 66 65 65 65 64 64 64 64 63 63 63 63 62 62 62 62 61 61 62 62 62 62 57 54 52 50 49 50 51 52 52 53
66 66 66 66 66 66 66 66 66 66 66 66 66 66 66 66 65 65 65 65 65 66 65 65 65 65 65 65 65 65 65 65 65 66 66 66 66 66 66 66 65 66 66 66 66 65 65 65 65 64 64 65 65 66 66 66 66 66 66 66 66 66 67 67 67 66 66 66 66 66 66 65 65 65 64 64 64 64 63 63 62 62 62 62 62 62 61 61 61 62 62 61 59 55 52 50 50 49 49 50 51 52 52
66 66 66 66 66 66 66 66 65 65 66 66 66 66 66 65 65 65 65 65 65 65 65 65 65 65 65 65 65 65 65 65 65 66 66 66 66 65 65 64 64 64 64 64 64 64 63 63 63 64 65 65 66 66 66 66 66 66 66 66 66 66 67 67 66 66 66 66 66 66 65 65 65 64 64 64 64 63 63 62 61 61 61 61 61 61 61 61 61 62 61 58 54 52 51 50 50 49 49 49 50 51 52
66 66 66 66 66 66 66 66 65 65 65 65 66 65 65 65 65 65 65 65 65 65 65 65 65 65 65 65 66 66 66 66 65 65 65 65 65 64 63 63 63 63 63 63 63 63 63 63 63 64 65 65 66 66 66 66 66 66 66 66 66 66 66 66 66 66 66 66 65 65 65 65 64 64 64 64 64 63 61 60 59 59 59 60 60 61 61 61 61 61 58 55 51 50 50 50 50 49 49 49 50 51 52
66 66 66 66 66 66 66 65 64 65 65 65 65 65 65 65 64 65 65 65 66 66 66 66 65 65 65 65 65 66 66 66 65 65 65 65 64 63 62 61 62 62 62 63 63 62 62 63 63 64 65 66 66 66 66 66 66 66 66 66 66 66 66 66 66 66 66 66 65 65 64 64 64 64 64 63 63 62 60 57 57 57 57 57 57 57 58 60 59 57 53 51 49 49 49 50 50 49 49 50 50 51 52
65 65 65 66 66 66 65 65 64 65 65 65 65 65 64 64 64 65 65 65 66 66 66 66 65 65 65 64 65 66 66 66 65 65 65 65 64 62 61 61 61 61 62 62 62 62 62 63 63 64 65 66 66 66 66 66 66 66 66 66 66 66 66 66 66 66 66 65 65 65 64 64 64 64 63 62 62 60 57 55 54 55 55 54 53 53 54 55 54 51 49 48 48 48 49 49 49 49 50 50 50 51 52
65 65 65 65 65 65 65 65 64 64 65 65 65 64 64 64 64 64 65 65 66 66 66 66 65 65 65 64 64 65 66 66 65 65 65 64 63 62 61 61 61 61 61 62 62 61 62 63 63 63 64 64 65 65 66 66 66 66 66 66 66 66 66 65 65 65 65 65 65 64 64 63 63 62 61 60 59 57 55 54 53 53 52 52 52 51 51 52 51 49 48 48 48 48 49 49 49 50 50 50 50 51 51
66 66 65 65 65 65 65 65 64 64 65 65 64 64 64 64 65 64 65 65 66 66 65 65 65 65 64 64 64 64 65 66 65 65 64 64 63 62 61 61 61 61 61 61 61 61 61 61 61 61 62 62 62 63 64 64 64 64 64 64 65 65 64 63 63 63 63 63 63 62 62 62 62 61 58 57 56 54 54 53 52 52 52 51 51 51 51 51 49 48 48 48 48 49 49 50 50 50 50 50 50 50 51
65 65 65 65 65 65 65 65 65 64 65 65 64 64 64 64 65 65 65 66 66 65 65 65 65 65 64 64 64 64 65 65 65 64 63 63 63 61 61 60 61 61 61 61 60 60 60 59 60 60 61 61 61 61 62 62 62 62 62 62 63 63 62 61 61 61 61 61 61 61 61 61 61 58 57 55 54 53 53 52 52 52 52 52 52 52 51 50 48 48 48 49 49 50 50 51 51 51 50 50 50 50 50
65 65 65 65 65 65 65 65 65 65 65 65 65 65 65 65 65 66 66 66 65 65 65 65 65 64 64 64 64 65 65 65 66 65 63 63 62 61 60 60 60 60 60 60 60 59 58 58 58 59 60 60 60 60 60 60 60 60 61 61 61 61 61 60 61 61 61 60 60 60 59 59 58 56 55 54 54 53 52 52 52 52 53 53 52 52 51 49 48 48 49 49 50 51 52 52 52 51 50 50 50 50 50
65 65 65 65 65 65 65 65 65 65 66 66 66 66 66 66 66 66 66 65 65 64 64 64 64 64 64 64 65 66 65 65 66 66 64 62 61 60 60 60 60 60 60 60 59 58 57 57 57 58 59 59 59 59 59 59 59 59 59 60 60 60 60 60 60 60 60 59 59 59 58 58 57 55 55 54 53 53 53 53 53 53 53 53 52 51 50 49 49 49 49 50 51 52 52 53 52 52 51 50 50 50 50
63 64 65 65 65 65 65 65 65 66 66 66 66 66 66 66 66 66 65 65 64 64 64 64 64 64 64 64 64 65 65 65 65 66 64 62 61 60 60 60 59 59 59 59 58 57 56 56 56 57 57 58 58 58 58 58 58 58 58 58 59 59 59 59 59 59 59 59 58 58 58 57 56 55 54 54 53 53 53 53 53 53 53 52 52 50 49 48 49 49 50 51 51 52 52 52 53 51 50 49 50 50 51
62 62 63 64 65 65 65 65 65 65 66 65 66 66 65 65 65 65 65 64 63 64 64 64 63 64 64 63 61 63 64 64 64 65 64 62 61 60 60 60 59 59 59 58 57 56 55 54 55 56 56 57 57 57 57 57 57 58 58 58 58 58 59 59 58 58 58 58 58 58 57 57 55 55 54 54 54 53 53 53 53 53 53 52 51 50 49 48 48 48 49 50 51 51 51 52 51 50 49 48 49 49 50
62 62 63 65 66 66 65 65 65 65 65 66 65 65 65 65 64 64 64 64 64 64 64 63 63 64 63 61 60 61 62 64 64 64 64 63 61 60 60 60 60 60 59 58 57 55 54 53 54 55 56 56 56 57 57 57 57 57 57 58 58 58 58 58 58 57 57 58 58 57 57 56 55 54 54 54 54 54 54 53 53 53 52 52 51 50 49 48 47 48 48 49 49 49 49 49 49 48 48 48 48 49 49
63 63 64 64 64 63 64 65 65 65 65 65 65 65 65 64 63 64 64 64 64 63 62 62 62 61 61 59 58 60 62 64 63 64 64 63 61 60 60 60 60 60 59 58 57 55 54 53 53 54 55 56 56 57 57 57 57 57 57 57 58 58 58 58 58 57 57 57 57 57 56 55 55 54 54 54 54 55 54 53 53 52 52 51 51 50 49 48 47 47 47 48 48 47 47 47 47 47 47 47 47 48 48
62 63 63 64 63 62 62 63 63 65 65 65 65 65 64 64 63 63 63 63 64 64 62 61 61 60 59 58 57 60 63 64 64 64 64 62 61 60 60 60 59 59 58 57 56 55 54 53 53 53 53 55 56 56 57 57 57 57 57 57 58 57 57 57 57 57 57 57 57 57 56 55 54 54 54 54 54 54 54 53 53 53 52 51 51 50 49 48 48 46 47 47 46 46 46 46 45 45 46 46 46 47 48
62 62 62 62 61 62 62 62 62 65 65 65 65 64 64 63 63 63 63 63 63 64 63 61 60 59 58 57 58 61 63 65 64 63 62 62 61 61 60 60 59 58 57 57 56 55 54 53 53 52 53 54 55 55 56 57 57 57 57 58 58 58 57 57 57 57 57 57 57 56 55 54 53 53 53 53 53 53 53 53 53 52 51 50 50 49 49 48 48 46 46 45 45 46 46 46 45 45 45 45 46 46 47
63 63 62 61 61 61 62 62 63 65 65 65 65 64 64 64 63 63 63 64 64 64 63 62 60 59 58 59 59 61 63 65 65 63 62 63 63 61 61 60 59 58 58 57 56 55 54 54 54 53 54 54 54 55 55 57 57 57 57 58 58 58 58 57 58 57 57 57 57 55 54 54 53 53 53 53 53 53 53 53 53 52 51 50 49 48 48 48 47 46 45 44 45 46 46 46 45 44 44 44 44 45 46
64 64 62 61 61 61 62 63 63 65 65 65 64 64 64 64 63 63 63 64 64 64 64 63 61 60 60 60 61 61 62 64 64 62 62 62 64 62 61 60 58 58 58 57 57 55 54 54 54 54 54 54 54 54 54 56 57 57 57 57 58 58 58 57 57 57 56 56 56 55 54 53 52 52 53 53 52 52 52 52 52 51 50 50 49 48 48 46 46 45 45 44 45 45 45 45 45 43 43 43 43 44 44
64 65 63 62 61 61 61 63 63 65 65 65 64 64 64 64 63 63 63 64 64 64 64 63 62 61 61 61 61 60 60 61 63 61 61 62 64 62 61 59 59 58 58 57 57 55 55 55 54 54 54 53 53 53 54 55 56 55 56 57 57 57 57 57 56 55 55 55 54 53 53 52 52 52 52 52 52 52 52 51 51 50 50 50 49 48 48 47 45 45 45 44 44 43 43 43 43 43 42 42 42 43 43
64 65 64 62 61 61 61 63 65 65 65 65 64 64 64 63 62 63 63 63 64 63 63 63 63 62 62 61 60 59 59 60 61 61 61 62 64 63 61 60 59 59 58 57 57 56 57 57 55 55 54 53 52 53 54 55 54 54 55 56 56 56 56 55 55 54 54 53 53 52 52 52 52 52 52 52 52 51 51 50 50 50 50 49 49 48 48 47 45 44 43 43 43 42 42 42 42 41 40 40 41 41 42
64 65 64 63 62 61 61 63 65 65 65 65 65 64 64 63 62 63 63 63 63 62 62 63 63 63 62 61 59 57 57 58 60 61 61 62 65 63 62 61 61 60 59 58 57 57 57 57 57 55 54 53 53 53 54 54 53 54 54 55 54 55 54 54 54 53 53 53 53 52 52 51 51 51 51 51 51 50 50 49 49 49 49 49 49 48 48 47 45 44 43 43 43 42 42 42 41 40 39 39 39 40 40
63 64 63 62 62 61 62 63 65 65 65 65 65 64 64 64 63 63 63 63 62 62 62 63 64 63 63 62 59 57 57 58 60 61 61 61 63 64 63 62 61 60 59 58 57 57 57 57 57 56 54 54 54 53 53 52 52 53 54 54 53 53 53 53 53 52 52 52 52 52 51 51 51 51 51 51 51 50 49 49 49 49 49 49 49 48 48 47 45 43 43 43 42 42 42 41 40 39 39 39 38 38 39
63 64 64 63 62 62 63 64 64 65 65 64 64 64 64 64 63 63 63 63 62 62 62 63 64 64 63 62 60 58 58 59 61 61 61 61 62 63 63 61 61 61 60 59 57 57 57 57 57 56 55 54 54 53 52 52 52 53 53 52 52 52 52 52 52 52 52 52 52 51 50 51 51 51 51 50 50 49 49 48 48 48 48 48 48 48 48 47 45 44 43 42 42 42 41 40 39 39 39 38 37 37 37
63 64 64 63 62 62 63 64 64 65 64 64 64 64 64 64 63 63 63 62 62 61 62 63 64 64 63 63 61 59 58 59 60 61 61 61 61 62 61 61 61 61 60 59 57 57 57 57 56 56 55 54 54 53 52 52 52 53 52 52 52 52 52 52 52 52 52 51 51 50 50 50 50 50 50 49 49 49 48 48 48 48 47 47 47 47 47 46 45 44 43 42 42 41 40 39 39 38 38 38 37 36 37
63 64 64 64 63 63 64 65 65 65 64 64 64 64 64 64 64 63 62 61 61 61 62 63 64 63 63 63 61 58 58 58 59 60 60 61 61 61 61 61 61 60 60 59 57 57 57 57 56 56 55 54 54 53 52 52 53 52 52 52 52 52 52 51 51 51 50 50 50 50 50 50 50 49 49 49 48 48 48 48 48 47 47 47 47 46 45 45 44 43 43 42 42 41 40 39 38 37 37 37 36 37 37
63 64 64 64 63 64 64 65 64 65 64 64 64 64 64 64 64 64 63 61 61 62 63 63 64 63 63 62 60 57 57 58 59 59 60 60 60 60 61 61 60 60 59 58 57 56 56 57 57 56 55 55 54 52 52 52 52 51 51 51 51 51 51 51 50 49 49 49 49 49 49 50 50 49 48 48 48 48 48 47 47 47 46 45 45 45 44 43 43 43 42 41 41 41 40 39 38 36 36 36 36 37 37
63 64 64 64 63 64 64 64 64 64 64 64 64 64 64 64 64 64 63 63 63 63 63 63 63 63 63 61 58 56 56 57 58 58 59 59 59 60 60 59 59 58 58 57 57 57 57 57 57 56 56 55 54 52 52 52 51 51 50 50 50 51 51 51 50 49 49 49 49 48 49 49 49 48 48 48 47 47 47 47 46 46 45 45 44 44 43 43 42 42 41 40 40 40 39 38 37 36 35 35 36 37 37
63 64 64 64 63 64 64 64 64 64 64 64 64 64 64 64 64 64 63 63 62 62 62 62 62 62 62 61 57 55 55 57 57 58 58 59 58 58 58 58 57 57 57 57 57 57 57 57 57 56 55 55 54 53 52 52 51 50 50 50 50 50 50 50 50 50 50 50 48 48 48 48 48 48 48 47 46 46 46 46 45 45 44 44 44 45 44 43 41 40 39 39 39 38 38 38 37 37 37 38 39 37 36
63 64 64 63 63 64 65 64 64 64 64 64 64 64 64 64 64 63 63 63 61 61 61 61 62 62 62 60 57 55 55 56 57 57 58 58 57 57 57 57 57 57 57 57 57 57 57 56 56 55 55 55 54 53 52 51 50 50 50 51 50 50 50 50 50 50 50 49 48 48 48 48 48 48 48 47 46 46 46 45 45 44 44 44 45 45 44 43 40 39 38 38 38 37 37 37 36 36 38 39 39 36 35
63 64 63 63 62 64 64 64 64 64 64 64 64 64 63 63 63 63 63 62 62 61 61 61 62 62 61 60 57 55 54 55 56 57 57 57 57 57 57 56 57 57 57 57 57 56 56 56 56 55 55 54 53 52 51 50 49 49 50 50 50 50 50 50 50 50 50 50 49 49 49 48 48 48 47 47 46 46 45 45 44 44 44 44 44 45 44 43 40 39 37 37 36 36 36 36 36 37 37 37 37 35 35
63 63 63 64 63 64 64 64 64 64 64 64 63 63 63 62 62 62 62 62 61 61 61 61 61 61 61 59 57 56 55 55 55 56 56 57 57 56 56 56 56 56 56 56 56 56 55 55 55 55 54 53 52 51 50 49 49 49 49 50 49 49 49 49 49 49 49 49 49 49 49 48 48 47 47 47 47 46 45 44 44 44 44 44 43 43 42 41 40 38 37 36 35 35 35 35 35 37 36 36 35 35 35
63 63 64 64 63 64 64 63 64 63 63 63 63 62 62 61 61 61 61 61 61 61 61 61 61 61 60 59 57 56 55 55 55 55 55 56 56 56 56 56 56 55 55 55 55 56 55 55 55 54 54 53 51 50 49 49 48 49 49 49 49 49 48 48 47 48 48 48 48 48 48 48 48 46 46 46 48 47 46 44 44 43 43 43 43 42 41 40 40 38 36 35 34 34 34 34 35 35 35 34 34 35 35
63 63 63 63 63 63 63 62 62 62 62 62 62 61 61 61 60 60 60 60 60 60 60 60 60 60 59 58 57 56 55 55 55 54 55 55 55 56 55 55 55 55 54 54 54 55 55 55 55 54 54 53 51 49 49 48 48 49 49 49 49 48 48 47 46 47 47 47 48 48 48 48 48 47 46 46 46 46 45 44 43 43 43 42 41 41 40 39 38 36 35 34 33 33 34 34 36 34 34 34 34 34 34
63 63 63 62 62 62 62 61 61 61 61 61 61 61 61 60 60 60 60 59 59 59 59 59 59 58 57 57 56 55 55 56 55 54 54 54 55 55 55 55 55 55 54 54 54 55 55 55 55 54 53 52 51 50 48 48 48 49 50 49 49 48 47 47 47 47 47 47 47 48 48 48 48 47 46 46 43 44 43 43 43 42 42 42 41 39 38 36 36 35 34 33 32 33 33 34 35 33 32 33 33 33 34
62 62 62 62 62 62 61 61 61 61 61 61 61 61 61 60 60 59 59 59 59 59 59 59 57 57 57 56 55 54 54 54 54 53 53 53 54 54 54 54 54 54 54 54 54 55 55 55 55 54 53 52 51 50 48 48 48 49 49 49 48 48 48 47 48 48 48 48 48 49 49 48 47 46 46 45 43 42 42 42 42 42 42 42 41 38 35 34 34 33 33 32 31 32 32 32 32 32 32 33 33 33 34
62 62 61 61 61 61 61 61 61 61 61 61 61 61 61 60 60 60 60 59 59 59 58 58 57 56 56 56 55 54 53 53 52 51 52 53 53 53 54 54 54 53 53 53 54 54 54 54 55 54 53 52 50 49 48 48 49 49 49 49 48 48 48 47 47 48 48 48 48 48 48 47 46 45 45 45 44 43 43 42 41 41 41 40 37 36 35 34 32 31 31 31 30 30 31 32 32 31 32 33 33 34 34
62 62 61 61 61 61 61 61 61 61 61 61 61 61 61 61 61 60 60 59 59 59 58 57 57 56 56 56 57 55 54 53 52 51 51 52 53 53 53 53 53 53 53 53 53 54 54 54 55 54 52 52 50 49 48 48 50 50 49 49 48 48 47 47 47 48 48 48 48 47 47 46 45 43 43 43 44 44 43 43 42 42 41 39 35 34 35 35 35 32 30 29 28 28 30 31 32 31 32 33 32 32 33
61 61 61 61 61 61 61 61 61 61 61 60 60 61 61 61 61 61 60 60 59 59 58 57 57 57 57 58 59 57 54 52 51 51 51 51 52 52 52 53 53 53 53 53 53 53 54 53 52 52 52 51 50 49 48 49 50 50 50 49 48 47 47 46 46 47 47 46 46 46 45 45 44 43 42 42 43 43 43 42 42 41 41 39 37 34 34 34 34 31 29 28 28 27 28 29 30 29 29 30 32 31 32
61 61 61 61 60 61 61 61 61 61 60 60 59 60 61 61 61 61 61 61 60 59 58 58 58 57 57 57 60 57 54 52 51 50 50 50 51 52 52 52 53 53 52 52 52 53 53 53 52 52 52 51 49 48 48 49 50 50 50 49 49 48 47 46 45 45 45 45 45 45 45 44 44 43 42 41 41 41 41 41 41 42 41 40 38 37 34 31 31 30 32 34 34 30 28 27 28 28 28 28 30 32 32
61 61 61 61 60 60 60 61 61 61 60 59 59 60 61 61 61 61 61 61 61 60 60 60 59 58 58 58 60 57 54 51 50 50 50 50 51 51 52 52 52 53 52 52 53 53 53 53 52 52 52 51 50 48 48 49 49 49 49 50 49 48 47 45 45 44 43 43 44 43 43 44 43 43 43 42 41 40 40 40 40 40 41 40 37 38 35 32 29 30 33 34 34 32 30 29 30 30 29 28 30 31 31
60 60 60 60 60 60 60 60 60 60 60 59 59 60 61 60 60 60 60 60 60 60 59 59 59 59 58 58 58 57 54 52 51 50 50 51 52 52 52 52 52 52 53 53 53 53 54 53 53 52 51 50 49 48 48 48 48 49 49 49 49 48 46 45 44 43 43 43 42 43 43 43 41 41 42 42 41 40 40 39 39 39 40 40 38 36 36 36 35 32 30 30 29 29 30 31 33 31 30 29 30 31 31
60 60 60 60 60 60 60 60 60 60 60 59 59 60 60 60 60 59 59 58 58 57 57 57 56 57 57 57 57 55 53 51 51 51 51 51 52 52 52 51 52 52 53 53 53 54 54 54 53 52 51 50 49 48 48 48 48 49 49 49 49 48 46 45 44 44 44 44 43 43 43 42 42 41 41 42 42 41 40 39 39 38 39 39 39 36 36 37 39 34 32 31 30 31 31 32 33 33 30 29 30 33 32
59 59 59 59 60 60 60 60 61 61 61 60 59 59 59 60 60 59 58 58 57 57 56 56 55 55 54 54 54 53 52 52 51 50 51 52 52 52 51 52 52 52 53 53 53 54 54 54 54 52 51 50 49 49 48 48 48 49 49 49 48 48 47 45 44 44 43 43 43 42 43 42 42 42 41 41 42 43 42 40 38 37 37 38 38 38 37 36 37 37 37 37 35 36 35 34 31 31 31 30 30 32 33
59 59 59 59 59 59 60 60 60 61 61 61 60 59 59 59 59 59 58 58 57 57 56 55 54 53 53 53 53 53 53 53 52 51 51 52 52 51 51 52 52 52 52 53 52 54 54 54 54 52 52 50 49 49 49 48 48 48 49 48 48 48 47 46 44 43 43 43 43 41 41 42 43 43 42 41 42 43 42 41 39 37 36 36 35 36 36 36 36 36 36 35 35 37 38 36 32 31 31 32 32 31 31
60 60 60 59 59 59 59 59 59 60 61 62 61 59 58 58 58 58 58 57 57 56 55 54 53 53 53 54 54 54 54 54 53 53 52 51 50 51 51 51 52 52 52 52 52 53 54 54 54 52 52 50 48 48 48 48 48 48 48 48 49 48 47 46 45 44 43 43 43 41 41 43 44 43 43 43 42 43 43 41 39 38 37 36 34 34 34 35 36 36 35 34 34 35 36 36 35 34 34 34 34 33 32
60 60 60 60 59 59 59 59 59 60 61 61 61 59 58 58 57 57 57 57 57 56 55 54 53 53 54 55 56 54 54 55 55 55 52 50 49 50 50 51 51 51 51 52 52 52 53 53 53 52 52 50 49 48 48 48 48 48 48 48 49 48 47 47 46 45 44 44 43 42 42 43 44 44 44 44 43 43 43 43 41 39 38 37 35 34 34 34 36 35 35 35 35 34 35 35 36 37 38 39 38 37 35
59 59 60 60 60 59 59 58 59 59 60 60 60 60 59 58 58 57 57 57 57 56 55 55 54 54 54 55 57 56 56 56 57 57 54 51 49 49 50 50 51 51 51 51 52 52 52 52 53 52 52 50 48 48 48 48 48 48 48 48 48 48 47 47 47 46 45 45 44 43 43 43 43 44 45 44 43 43 43 43 43 41 39 38 37 36 35 34 34 34 34 35 35 35 35 35 36 37 38 39 39 38 37
58 59 59 60 60 59 59 58 58 59 59 59 60 60 59 59 58 58 58 57 57 57 56 56 56 55 56 57 57 57 57 57 57 57 56 53 50 49 49 49 50 51 51 51 51 52 52 52 52 52 51 50 48 47 47 47 47 47 48 48 48 47 47 47 47 46 46 46 45 45 44 43 43 44 44 44 43 43 43 43 43 43 41 39 38 38 37 36 35 34 34 34 34 35 35 36 36 37 37 37 37 37 37
58 58 59 59 60 59 59 59 59 59 58 58 59 60 60 60 59 59 59 58 58 57 57 57 57 57 57 57 57 57 57 57 57 58 57 55 51 50 49 49 49 50 51 51 51 51 51 52 52 51 51 50 48 47 47 47 47 47 48 48 48 47 47 47 48 47 47 47 46 46 45 45 44 44 44 44 44 43 43 43 43 43 42 41 40 39 39 38 37 35 35 34 34 35 35 35 35 36 36 36 35 36 37
57 58 58 59 59 59 59 59 58 58 58 58 59 59 60 60 60 60 59 59 58 58 57 57 57 57 57 57 57 57 57 57 58 58 57 56 52 50 49 48 48 49 51 51 52 51 51 50 52 51 51 50 49 47 47 47 47 47 48 48 48 47 47 47 48 48 47 47 46 46 46 46 45 44 44 44 45 44 43 43 43 42 42 42 41 40 39 39 38 37 36 35 34 34 34 34 34 34 35 35 35 35 35
57 58 58 59 59 59 60 59 59 59 58 58 59 59 59 59 60 60 59 59 59 58 57 57 57 57 57 57 57 57 57 57 57 57 55 54 52 50 48 47 47 49 50 51 51 51 50 50 51 50 50 50 48 46 46 47 47 47 47 47 47 46 47 47 47 47 47 46 46 46 45 45 45 44 44 44 45 45 44 43 43 42 42 42 42 41 40 39 39 38 37 36 36 36 35 35 35 35 35 35 35 35 35
57 58 58 58 59 59 60 59 59 59 58 58 59 59 59 59 58 59 59 59 58 58 57 57 57 56 56 56 56 56 57 57 56 55 53 51 50 49 48 48 48 49 50 51 51 51 50 50 50 50 50 49 48 48 47 46 46 47 47 47 47 47 47 47 47 47 47 47 46 46 45 45 45 44 44 44 45 45 45 44 43 43 43 43 42 42 40 39 39 39 38 37 37 37 37 37 37 37 38 37 37 36 36
57 57 58 58 58 59 59 59 59 59 58 58 59 58 58 58 57 58 58 58 57 57 57 57 56 56 55 55 55 55 55 55 55 53 52 50 49 48 48 48 48 48 50 50 51 50 50 50 50 50 50 49 48 48 47 47 47 47 47 47 47 47 47 47 47 47 47 47 47 46 45 44 44 44 44 44 45 45 45 44 43 43 43 43 43 42 41 40 39 39 38 38 38 38 38 38 39 39 39 39 38 37 37
57 57 57 57 58 59 59 59 58 58 58 58 58 58 58 57 57 57 57 57 57 57 56 56 56 55 55 54 53 53 54 54 53 52 51 49 48 48 47 47 47 48 49 49 49 50 49 49 49 49 50 49 48 48 48 47 47 47 47 47 46 47 47 47 47 48 48 48 47 46 45 44 44 44 44 44 44 44 45 45 44 43 43 43 43 43 42 40 39 39 39 39 38 39 39 39 39 39 39 39 39 38 38
57 57 57 57 57 58 59 58 57 57 57 57 58 58 57 57 57 57 57 57 56 56 55 55 55 55 55 54 53 52 52 52 52 52 51 49 48 48 47 47 48 48 48 48 48 49 49 48 48 49 49 48 47 47 47 47 47 47 47 47 46 47 48 48 48 48 48 48 47 46 45 44 44 44 44 44 44 45 45 45 45 44 44 44 44 44 43 42 40 39 39 39 38 38 39 39 39 39 40 40 39 38 38
57 57 56 56 57 57 58 58 57 57 57 57 57 57 57 57 56 57 57 56 55 55 55 55 55 54 54 53 52 52 52 52 52 51 50 50 49 48 48 48 48 48 48 48 48 48 48 48 48 48 48 48 47 48 48 48 48 48 47 47 46 46 48 49 50 49 48 48 47 46 45 44 44 44 44 44 45 46 46 46 46 45 45 45 45 44 43 43 41 40 39 39 39 38 39 39 39 39 39 39 39 38 38